Temp
62 62 62 62 63 63 63 63 63 62 62 63 62 62 62 62 62 61 65 77 75 80 81 80 80 79 78 70 76 73 59 57 58 58 61 65 64 73 80 74 78 77 74 74 74
62 62 62 62 62 62 62 62 62 62 62 62 62 62 62 62 57 62 76 80 79 81 79 78 75 79 68 71 72 67 58 62 69 66 63 64 65 71 70 74 71 72 75 75 74
62 62 62 62 62 62 62 62 62 62 61 61 61 62 62 60 57 73 80 80 81 81 79 78 80 77 65 68 69 67 62 69 68 69 69 65 65 75 69 67 71 67 70 73 72
61 61 61 61 62 62 62 62 62 61 61 61 61 62 62 56 60 78 81 80 81 79 78 77 80 69 65 63 74 66 70 72 69 71 67 65 71 72 72 73 78 74 74 73 71
60 60 60 60 61 61 61 61 61 60 61 61 62 62 58 60 71 82 81 80 77 78 76 76 74 68 65 73 71 68 71 73 73 72 70 68 66 70 71 76 79 77 74 72 72
59 59 59 59 60 61 61 60 60 60 61 62 62 63 57 62 82 80 78 76 77 74 74 75 77 74 71 69 68 70 71 71 73 72 69 67 68 73 70 76 75 74 70 72 73
59 59 58 58 58 59 60 59 60 60 61 62 63 64 63 72 83 79 76 73 74 75 74 78 77 72 72 67 73 72 64 67 69 70 69 69 65 64 70 76 73 72 71 70 74
59 59 59 59 59 59 58 58 59 60 61 62 64 60 63 82 78 79 75 76 77 75 74 78 77 72 73 73 71 64 64 59 66 66 67 65 54 65 68 72 71 71 73 73 73
59 59 59 59 59 58 57 58 60 62 63 65 56 57 66 81 77 80 80 80 78 72 74 88 77 68 69 63 56 64 52 55 61 68 65 62 57 64 68 71 71 71 72 71 70
59 58 58 58 58 57 56 59 64 62 63 67 69 60 70 72 77 83 81 82 75 74 74 71 64 60 58 57 48 52 53 58 57 63 64 59 57 62 65 69 68 70 71 72 70
59 58 58 57 57 56 53 57 64 63 61 68 69 72 75 76 80 80 83 79 73 70 59 63 59 55 62 63 62 62 58 57 62 66 62 58 58 60 63 65 64 66 68 67 70
58 58 58 57 56 55 51 64 67 69 62 73 75 74 78 77 71 76 78 71 66 60 62 59 54 65 69 69 67 64 58 57 62 67 64 59 58 62 62 64 65 65 67 70 68
58 58 57 56 56 55 60 66 72 66 59 71 73 74 74 78 74 74 78 70 66 60 61 57 65 72 69 65 64 60 58 57 59 64 64 61 57 58 61 65 66 67 68 70 68
58 58 56 54 60 56 65 68 69 69 54 64 67 78 78 76 70 83 80 75 67 65 63 61 70 70 65 65 65 53 68 66 63 55 50 60 47 56 60 60 63 67 66 68 68
58 57 55 54 53 60 73 65 69 70 45 71 71 82 74 72 70 74 80 73 66 68 64 64 67 67 65 67 69 64 71 66 62 56 53 56 51 53 58 58 61 64 69 68 68
57 56 55 52 48 59 63 64 69 55 47 66 75 70 69 68 72 75 75 73 74 67 63 67 73 70 69 72 71 72 65 60 57 50 45 53 51 50 52 60 65 65 68 70 71
56 55 54 58 61 60 63 66 54 46 67 65 66 67 65 64 68 70 67 62 60 53 53 63 65 70 74 64 67 62 53 42 41 41 42 47 49 52 59 63 65 65 67 71 72
54 53 52 55 55 61 64 60 45 61 62 68 67 66 65 67 65 67 63 60 61 59 53 52 54 64 71 67 62 56 54 46 40 40 43 48 45 54 64 67 67 69 68 71 72
53 51 51 55 58 60 62 48 52 57 66 67 65 61 57 67 66 65 61 59 64 63 56 51 56 70 71 70 69 57 52 55 45 42 44 46 53 61 65 64 65 65 66 68 71
50 50 55 61 62 62 57 49 55 65 68 65 55 62 55 60 63 61 61 65 67 69 63 58 52 61 69 71 68 60 62 52 47 39 37 44 47 48 59 62 64 64 63 65 70
53 55 66 61 63 61 52 49 59 69 72 63 59 58 59 60 61 60 60 66 70 67 64 56 54 59 63 59 57 58 52 48 47 44 40 38 44 57 60 62 60 61 64 65 68
50 52 66 66 57 48 52 55 62 66 68 67 64 63 63 63 58 59 62 66 73 68 60 56 52 48 54 64 63 59 54 51 47 42 42 43 47 62 62 62 63 63 64 64 67
47 47 63 66 51 49 54 62 66 63 65 65 63 66 65 62 57 62 65 70 71 67 62 60 49 45 52 56 61 58 57 48 47 44 42 43 48 60 60 61 63 63 63 62 64
50 49 55 57 54 52 52 58 61 69 68 68 67 64 60 59 57 60 63 70 71 69 67 63 46 48 45 49 53 53 58 56 50 45 44 46 50 55 58 60 62 64 64 64 63
48 50 52 47 52 52 52 58 60 59 66 68 63 63 62 55 55 57 62 62 69 66 62 58 49 46 49 56 58 58 58 57 53 51 51 52 53 56 57 58 60 63 65 65 63
49 49 51 48 51 52 49 51 57 60 59 62 62 67 63 58 62 60 61 56 60 59 57 54 49 49 48 57 58 56 60 58 58 56 53 50 52 57 58 59 59 62 63 63 63
51 52 51 48 49 50 51 55 60 60 62 66 67 63 63 66 68 68 67 65 66 61 55 54 50 47 43 52 55 49 55 56 57 58 56 51 55 56 56 58 58 59 61 62 63
MSLP
1016.66 1016.33 1016.09 1015.87 1015.59 1015.32 1015.13 1014.92 1014.68 1014.42 1014.18 1013.90 1013.62 1013.24 1012.94 1012.61 1011.96 1011.86 1010.85 1008.78 1008.69 1008.85 1009.09 1009.22 1009.13 1009.35 1009.54 1010.25 1010.57 1010.99 1011.75 1012.18 1012.66 1012.88 1013.01 1013.46 1013.14 1012.25 1011.20 1011.45 1011.71 1011.95 1012.32 1013.17 1014.36
1016.68 1016.33 1016.02 1015.78 1015.50 1015.21 1014.97 1014.75 1014.52 1014.27 1014.02 1013.75 1013.45 1013.15 1012.87 1012.64 1012.21 1010.90 1008.30 1008.11 1008.40 1008.73 1009.10 1009.26 1009.45 1009.42 1009.91 1010.33 1010.29 1010.37 1011.37 1011.53 1011.60 1012.02 1012.78 1013.07 1013.18 1012.25 1012.02 1011.75 1012.07 1012.50 1013.13 1014.00 1014.88
1016.74 1016.38 1016.01 1015.69 1015.37 1015.06 1014.79 1014.51 1014.29 1014.06 1013.84 1013.60 1013.32 1013.01 1012.77 1012.68 1011.83 1008.76 1007.44 1007.77 1008.23 1008.66 1008.83 1009.01 1009.16 1009.48 1009.79 1010.13 1010.18 1010.61 1011.05 1010.99 1011.41 1011.86 1012.37 1012.96 1012.81 1012.26 1012.02 1012.00 1011.79 1012.26 1013.29 1014.35 1015.12
1016.77 1016.39 1015.99 1015.61 1015.25 1014.88 1014.57 1014.30 1014.06 1013.84 1013.63 1013.42 1013.14 1012.88 1012.65 1012.57 1010.47 1007.50 1007.15 1007.58 1008.16 1008.66 1008.81 1009.02 1009.13 1009.49 1009.56 1009.87 1010.09 1010.59 1010.99 1010.96 1011.43 1011.79 1012.55 1012.98 1012.71 1011.88 1011.82 1011.52 1012.09 1012.57 1013.17 1014.28 1015.24
1016.82 1016.36 1015.95 1015.55 1015.16 1014.75 1014.43 1014.15 1013.88 1013.64 1013.43 1013.22 1012.94 1012.74 1012.52 1011.45 1008.75 1007.09 1007.42 1007.82 1008.32 1008.64 1008.74 1008.77 1008.73 1008.91 1009.37 1009.39 1010.11 1010.72 1011.02 1011.16 1011.38 1011.62 1012.12 1012.76 1012.41 1011.89 1011.78 1011.45 1012.29 1013.44 1014.09 1014.52 1015.21
1016.87 1016.39 1015.93 1015.52 1015.02 1014.51 1014.20 1013.94 1013.65 1013.39 1013.15 1012.93 1012.77 1012.64 1012.16 1009.81 1007.00 1007.18 1007.64 1008.18 1008.31 1008.47 1008.47 1008.38 1008.28 1008.43 1009.33 1009.80 1010.13 1010.77 1010.92 1011.19 1011.42 1011.74 1012.28 1012.61 1012.50 1011.93 1012.69 1011.88 1012.64 1013.71 1014.46 1014.75 1014.96
1016.82 1016.40 1015.86 1015.34 1014.89 1014.32 1013.85 1013.60 1013.35 1013.06 1012.86 1012.72 1012.64 1012.48 1011.33 1008.30 1007.04 1007.32 1007.81 1007.97 1008.01 1008.15 1008.16 1008.00 1007.97 1008.32 1009.14 1010.42 1010.67 1010.62 1010.94 1011.19 1011.49 1011.65 1012.00 1012.33 1012.45 1012.77 1013.06 1012.73 1013.10 1013.75 1014.28 1014.71 1014.91
1016.67 1016.25 1015.72 1015.12 1014.57 1014.08 1013.51 1013.08 1012.79 1012.57 1012.58 1012.56 1012.47 1012.20 1010.00 1007.24 1007.25 1007.63 1007.75 1007.66 1007.70 1007.91 1007.90 1007.61 1007.85 1008.37 1009.16 1010.26 1010.83 1011.23 1011.20 1010.97 1011.59 1011.79 1012.24 1012.50 1013.14 1013.24 1013.36 1013.26 1013.31 1014.00 1014.22 1014.59 1014.76
1016.46 1015.90 1015.40 1014.85 1014.23 1013.58 1013.01 1012.43 1011.94 1012.00 1012.26 1012.30 1012.40 1011.52 1009.04 1006.92 1007.13 1006.84 1007.07 1007.22 1007.32 1007.72 1007.61 1007.65 1007.83 1009.08 1010.13 1010.80 1011.76 1011.88 1012.25 1012.03 1011.46 1011.75 1012.40 1012.74 1013.28 1013.44 1013.17 1013.32 1013.54 1013.74 1014.20 1014.46 1014.79
1016.20 1015.63 1015.01 1014.36 1013.83 1013.27 1012.67 1011.85 1011.81 1011.99 1012.21 1012.13 1011.62 1011.09 1008.45 1007.18 1006.58 1006.47 1006.52 1006.82 1007.18 1007.49 1007.83 1007.89 1009.11 1009.76 1010.65 1011.07 1011.84 1012.14 1012.39 1012.31 1012.12 1012.16 1012.56 1012.95 1013.37 1013.78 1013.77 1013.69 1013.78 1014.04 1014.31 1014.58 1014.77
1016.02 1015.43 1014.77 1013.96 1013.39 1012.94 1012.46 1012.19 1012.08 1011.77 1011.24 1010.30 1009.52 1008.80 1007.54 1006.61 1006.18 1006.25 1006.25 1006.75 1007.11 1007.77 1008.47 1008.88 1009.70 1009.93 1009.75 1010.12 1010.54 1010.90 1011.62 1011.89 1011.78 1011.89 1012.30 1012.98 1013.31 1013.35 1013.87 1014.22 1014.30 1014.14 1014.13 1014.48 1014.45
1015.98 1015.26 1014.59 1013.73 1013.08 1012.68 1012.66 1012.22 1011.17 1011.19 1010.27 1008.37 1008.10 1007.77 1006.82 1006.37 1006.45 1006.26 1006.27 1006.95 1007.46 1008.25 1008.77 1009.45 1009.47 1008.87 1009.37 1009.57 1009.91 1010.39 1011.30 1011.65 1011.66 1011.85 1012.16 1012.64 1013.11 1013.10 1013.71 1013.91 1014.30 1014.37 1013.97 1014.06 1014.44
1015.86 1015.24 1014.52 1013.47 1012.86 1012.64 1012.51 1011.32 1010.51 1010.48 1010.38 1007.89 1007.02 1006.44 1005.99 1006.26 1006.23 1006.24 1006.47 1006.88 1007.50 1008.27 1008.71 1009.03 1008.08 1007.86 1008.72 1008.89 1009.40 1010.11 1010.71 1010.95 1011.06 1011.81 1012.43 1012.65 1012.65 1013.15 1013.46 1013.43 1013.98 1014.30 1014.15 1013.92 1014.15
1015.64 1015.15 1014.62 1013.45 1012.84 1012.97 1011.67 1010.37 1010.16 1010.11 1010.10 1007.88 1006.35 1005.11 1005.40 1005.82 1005.87 1005.62 1005.99 1006.59 1007.23 1007.65 1008.13 1008.16 1007.03 1007.23 1007.72 1008.20 1008.68 1009.37 1009.73 1010.37 1011.18 1012.41 1012.89 1012.92 1013.44 1012.77 1012.90 1013.23 1013.28 1013.45 1013.82 1013.93 1014.14
1015.39 1015.02 1014.75 1014.49 1014.03 1012.86 1010.55 1010.00 1009.75 1009.80 1009.48 1006.91 1005.59 1004.40 1005.08 1005.78 1005.74 1005.54 1005.72 1006.27 1006.82 1007.08 1007.54 1007.25 1006.51 1006.32 1006.76 1006.95 1007.78 1008.55 1008.83 1010.13 1011.88 1012.94 1013.53 1013.61 1013.72 1012.67 1012.76 1013.06 1013.20 1013.18 1013.03 1013.45 1013.70
1014.99 1014.78 1014.64 1014.52 1014.22 1011.37 1010.53 1010.10 1009.82 1010.39 1008.58 1006.41 1005.19 1005.03 1005.45 1005.63 1005.69 1005.53 1005.78 1005.98 1006.36 1006.87 1007.15 1006.84 1005.84 1005.67 1005.65 1006.27 1007.14 1008.06 1009.68 1011.54 1013.07 1014.07 1014.66 1013.94 1014.14 1013.33 1013.09 1012.64 1011.79 1011.79 1012.07 1012.71 1013.21
1014.34 1014.05 1014.40 1013.87 1012.18 1010.80 1010.67 1010.62 1011.10 1010.38 1007.79 1006.57 1005.69 1005.53 1005.65 1005.78 1005.82 1005.96 1006.13 1006.50 1007.02 1007.39 1007.81 1006.92 1006.11 1005.45 1005.38 1006.17 1007.23 1008.47 1010.68 1013.01 1014.73 1015.26 1015.06 1014.40 1014.45 1013.03 1012.48 1011.96 1011.20 1010.91 1011.00 1011.11 1012.06
1013.60 1012.82 1012.38 1012.00 1011.05 1010.85 1011.21 1011.41 1011.17 1009.10 1007.77 1006.49 1005.85 1005.89 1005.98 1005.85 1005.88 1006.10 1006.48 1006.87 1007.13 1007.48 1008.29 1007.93 1006.81 1005.79 1005.36 1005.85 1006.90 1008.55 1010.11 1012.05 1013.94 1015.31 1014.95 1014.54 1013.71 1012.08 1011.76 1011.39 1010.58 1010.29 1010.73 1011.06 1011.36
1013.01 1012.32 1012.20 1010.25 1010.75 1011.03 1011.60 1011.81 1010.22 1008.92 1007.59 1006.84 1005.91 1005.98 1006.11 1005.72 1005.86 1006.26 1006.65 1006.83 1006.84 1007.20 1007.94 1008.13 1007.21 1006.07 1005.65 1005.84 1006.60 1008.39 1009.88 1011.20 1013.46 1015.13 1015.27 1014.65 1013.28 1011.97 1011.65 1011.66 1011.40 1010.39 1010.68 1011.20 1011.35
1013.86 1013.06 1011.25 1009.83 1010.27 1010.75 1011.46 1011.26 1009.93 1008.50 1007.44 1006.90 1006.66 1006.00 1005.97 1005.60 1005.90 1006.20 1006.36 1006.12 1006.39 1006.63 1006.96 1007.97 1007.96 1007.17 1006.57 1006.13 1006.99 1007.87 1009.57 1011.54 1013.36 1015.29 1015.77 1014.92 1013.95 1012.65 1011.80 1011.41 1011.26 1011.08 1011.06 1010.98 1010.96
1014.02 1013.02 1010.26 1009.80 1010.10 1010.88 1011.56 1010.88 1009.34 1008.05 1007.30 1007.12 1006.80 1006.55 1005.82 1005.60 1005.62 1005.93 1005.95 1005.88 1005.80 1006.55 1007.00 1007.94 1008.74 1008.59 1007.84 1007.96 1008.20 1008.77 1009.98 1011.94 1013.62 1014.84 1015.51 1015.31 1013.95 1012.02 1011.44 1011.23 1011.64 1011.55 1011.20 1010.98 1010.43
1015.01 1013.68 1010.57 1010.43 1010.97 1011.50 1011.09 1009.95 1008.86 1007.91 1007.44 1007.26 1006.75 1006.44 1005.74 1005.43 1005.44 1005.64 1005.64 1005.43 1005.64 1006.42 1007.42 1008.37 1009.47 1009.86 1009.37 1008.51 1008.61 1008.80 1009.84 1011.41 1013.49 1015.03 1015.37 1014.95 1013.23 1011.76 1011.26 1011.39 1011.54 1011.98 1011.86 1010.39 1010.03
1016.17 1014.35 1010.73 1010.48 1011.39 1011.55 1010.59 1009.56 1008.52 1007.71 1007.23 1006.93 1006.65 1006.06 1005.91 1005.76 1005.71 1005.58 1005.55 1005.55 1005.83 1006.46 1007.40 1008.50 1010.24 1010.81 1010.20 1009.67 1009.03 1009.55 1009.98 1011.13 1012.56 1013.73 1014.69 1014.66 1013.18 1011.92 1011.70 1011.55 1011.58 1011.78 1011.98 1011.45 1010.47
1016.72 1015.14 1012.57 1011.65 1011.61 1011.36 1010.95 1009.71 1008.59 1007.46 1007.00 1006.50 1006.19 1005.98 1006.07 1006.02 1005.57 1005.80 1005.83 1005.96 1006.23 1006.61 1007.41 1008.21 1010.89 1011.33 1011.17 1010.54 1010.25 1010.04 1010.09 1010.60 1011.74 1013.14 1014.01 1013.47 1012.67 1012.40 1011.92 1011.56 1011.17 1011.40 1011.41 1011.23 1010.82
1016.79 1015.65 1014.53 1013.47 1012.58 1012.24 1011.29 1010.03 1009.07 1008.24 1007.39 1006.43 1006.11 1005.80 1006.10 1006.11 1005.96 1006.00 1006.11 1006.53 1006.84 1007.47 1008.32 1009.37 1011.09 1011.48 1011.30 1010.87 1010.19 1009.83 1009.80 1010.34 1010.97 1011.52 1012.23 1011.90 1012.09 1011.69 1011.98 1011.91 1011.47 1011.24 1011.65 1011.63 1011.39
1016.83 1016.06 1014.95 1014.29 1013.22 1012.40 1011.30 1010.46 1009.68 1008.90 1008.27 1007.24 1006.32 1005.65 1005.67 1005.52 1005.24 1005.89 1006.18 1006.69 1007.21 1008.17 1008.86 1010.02 1011.53 1011.84 1011.92 1011.13 1010.31 1009.98 1009.71 1009.86 1010.15 1010.79 1011.37 1011.44 1011.68 1011.37 1011.59 1011.87 1011.72 1011.06 1011.32 1011.88 1011.97
1016.42 1015.99 1015.62 1014.45 1013.60 1012.69 1011.52 1010.78 1009.96 1009.50 1007.93 1007.37 1006.49 1006.15 1005.54 1004.86 1004.49 1004.61 1004.83 1005.77 1006.71 1008.11 1009.59 1010.50 1011.61 1012.69 1012.56 1011.63 1010.77 1010.51 1010.08 1009.84 1010.12 1010.51 1010.93 1011.28 1011.17 1011.83 1012.13 1011.99 1011.58 1011.64 1011.92 1012.02 1012.00
Wind_Speed
13 13 13 13 14 13 13 13 12 12 10 10 11 12 12 13 13 3 5 9 5 5 4 5 1 3 1 3 2 3 4 2 5 9 3 3 5 3 5 11 5 2 6 9 14
14 14 14 14 14 14 14 14 13 12 11 10 10 11 11 11 3 5 10 7 8 7 4 5 4 4 1 3 2 3 3 2 4 6 6 3 3 5 5 11 3 12 12 15 14
15 15 15 15 15 14 14 13 13 12 11 10 10 10 10 7 2 6 7 11 9 6 2 2 3 2 2 4 5 4 1 2 5 5 8 6 4 8 10 7 13 20 19 18 13
17 17 16 16 16 15 14 13 13 12 11 9 9 9 9 1 3 3 3 13 7 6 3 4 3 4 3 5 3 2 4 4 9 11 7 7 5 5 12 4 11 15 21 19 15
18 18 18 17 16 15 15 14 13 12 10 8 8 7 2 1 6 2 10 10 6 6 4 4 2 3 2 2 6 3 4 6 8 8 8 6 5 4 8 17 14 14 15 17 14
19 19 19 18 17 17 16 15 14 12 9 8 6 5 2 1 1 8 9 6 5 4 4 5 3 3 5 6 5 5 8 5 6 8 4 8 6 1 11 16 17 15 12 12 15
19 19 19 19 19 18 18 16 14 12 9 7 4 3 1 7 2 7 8 7 4 5 5 4 2 2 6 8 4 9 6 3 2 3 3 3 2 3 5 11 17 18 16 13 13
19 19 18 18 18 19 19 18 15 12 8 6 4 2 6 2 4 5 3 2 4 5 3 4 2 1 5 7 1 4 5 3 3 4 3 3 2 2 3 7 15 15 15 15 14
17 19 19 19 19 20 19 20 11 4 5 6 2 0 9 8 2 6 7 5 4 3 4 4 2 5 3 6 5 5 2 6 7 5 3 1 4 4 3 2 9 7 12 15 11
18 18 19 19 18 18 21 9 9 8 2 4 4 3 4 3 4 3 6 4 2 3 3 3 6 4 4 4 6 6 4 3 4 2 3 2 2 1 3 7 9 10 11 11 12
19 19 20 20 19 15 9 2 5 3 3 7 6 4 4 2 1 3 3 4 3 6 2 4 5 6 10 7 4 6 4 3 4 6 4 6 4 7 5 3 4 3 11 7 12
20 20 21 22 20 15 2 3 3 1 11 9 6 6 5 4 1 3 2 3 2 3 3 6 5 10 6 7 5 9 6 4 1 5 6 7 7 6 9 5 6 6 7 11 6
20 20 21 25 23 1 1 4 2 2 1 9 5 5 5 7 6 7 8 3 3 2 4 6 8 6 6 3 5 3 7 6 4 4 5 2 6 5 4 4 7 7 4 3 9
20 19 19 30 2 5 5 2 7 3 6 8 3 5 4 3 3 6 8 6 2 7 6 7 6 9 6 6 8 5 8 8 7 5 1 1 3 6 6 9 10 11 9 6 6
20 17 14 7 5 3 4 7 7 4 3 2 4 0 3 8 2 3 5 3 5 4 5 8 3 4 4 6 10 9 16 12 11 4 1 1 3 6 4 3 6 9 10 10 7
22 17 14 2 1 9 9 9 4 8 6 2 5 4 4 3 3 0 4 1 1 0 1 6 3 3 3 4 8 9 10 9 7 4 4 2 3 5 2 3 5 8 13 13 12
24 19 7 2 6 1 5 5 6 4 4 3 6 3 3 4 3 4 5 3 3 4 5 6 2 3 4 4 4 9 8 4 4 2 7 4 4 8 5 7 7 12 16 18 16
27 23 6 6 5 1 3 6 4 5 6 4 1 2 7 7 6 4 3 1 3 4 2 2 8 2 1 6 7 3 9 7 4 4 3 3 4 6 5 6 3 7 9 13 15
24 2 2 5 10 2 6 3 8 6 3 6 5 4 3 5 4 4 6 4 6 7 7 3 5 4 0 3 8 3 2 4 9 3 2 3 6 3 2 3 5 6 8 10 11
5 5 5 4 9 5 6 6 5 4 3 3 2 1 2 3 5 7 7 3 5 7 5 5 2 2 7 4 4 4 5 4 4 5 3 4 4 5 5 4 4 5 5 6 10
3 5 4 3 2 6 4 8 4 5 4 4 2 4 3 1 5 3 4 1 3 2 3 5 4 6 3 5 4 3 2 8 7 4 6 1 7 6 8 2 6 4 7 6 8
4 4 4 3 4 1 4 7 3 3 4 5 4 10 5 3 3 3 4 5 6 5 4 2 6 1 2 4 3 3 4 5 6 3 1 3 7 3 9 2 5 4 5 5 6
3 4 5 4 2 2 5 4 4 2 4 3 4 2 3 6 4 4 2 1 2 4 7 5 3 3 9 8 6 6 3 5 6 4 5 6 7 2 7 6 1 6 2 6 4
3 4 6 5 1 2 3 5 4 3 6 6 7 1 3 5 1 6 4 2 1 4 8 10 4 7 7 6 3 3 3 4 5 4 6 7 4 6 8 8 7 5 5 3 2
1 3 2 4 4 4 3 3 3 6 5 4 4 3 9 6 3 3 3 2 6 5 5 6 4 2 2 3 3 3 2 2 5 5 6 6 9 6 9 8 9 5 3 2 3
1 1 5 4 3 4 1 1 2 3 2 7 5 10 4 7 10 9 8 4 6 2 3 2 3 4 1 3 2 2 6 1 2 4 2 1 4 3 3 3 7 11 3 4 5
2 2 3 4 4 1 2 3 4 3 7 9 8 6 5 12 9 9 9 10 10 10 4 4 7 4 3 3 3 5 3 1 2 3 1 4 4 5 4 8 9 6 4 5 4
Wind_Direction
351 352 347 343 340 339 339 338 336 333 329 325 320 317 321 324 316 142 241 218 155 181 128 128 213 191 313 67 118 156 59 206 157 153 191 171 262 9 21 132 164 142 136 136 145
350 349 346 341 339 337 338 336 333 329 325 320 315 312 318 329 319 257 245 218 215 156 150 151 153 163 295 116 187 140 135 221 165 149 133 100 305 161 114 183 90 103 102 124 142
350 347 344 340 338 337 336 332 329 323 321 316 308 308 313 327 297 250 200 203 175 153 150 111 136 144 186 136 210 95 219 127 102 115 108 117 277 151 166 227 171 150 146 149 156
348 344 340 338 337 334 331 328 327 326 316 309 301 305 308 311 121 251 124 187 163 137 165 138 153 149 236 166 138 113 280 143 127 126 143 156 285 232 180 171 166 150 152 152 166
346 342 339 336 334 330 327 325 321 319 312 301 300 307 300 276 250 179 111 131 133 142 175 162 201 174 39 89 104 74 59 94 122 148 121 114 337 360 76 122 144 153 152 163 168
346 341 338 336 333 328 325 320 315 311 299 288 287 299 276 355 213 144 128 129 149 159 165 184 213 197 77 59 62 121 99 117 113 117 117 159 207 71 159 131 148 158 149 177 176
345 342 339 336 332 325 321 315 308 298 285 272 260 263 318 229 355 146 143 176 185 168 162 221 204 57 118 87 87 118 96 30 144 95 134 141 69 94 0 166 159 165 175 179 194
341 340 335 330 326 320 313 310 302 281 263 250 230 242 251 244 83 136 191 229 170 204 252 230 209 266 82 129 91 47 354 15 136 75 119 147 176 165 225 155 176 179 191 184 180
335 327 326 323 319 319 315 312 303 208 197 171 213 230 280 309 162 211 166 224 153 186 265 274 104 93 80 109 30 14 250 318 347 151 56 131 146 175 123 150 167 161 170 171 180
330 328 324 321 321 321 325 309 104 116 176 203 255 346 279 236 226 184 204 165 168 105 10 71 58 82 61 109 194 195 199 236 260 123 139 88 117 235 185 201 142 161 159 175 180
329 327 326 322 324 328 351 85 357 1 162 213 208 242 270 240 186 221 164 115 79 53 122 358 71 198 194 201 159 175 144 172 213 153 124 197 220 185 221 154 213 161 158 155 179
330 328 328 323 324 325 155 76 158 201 305 235 230 260 271 140 266 301 94 106 100 183 121 22 235 229 166 194 210 179 137 208 236 183 187 171 210 186 177 181 195 230 165 160 156
328 329 329 323 322 80 317 238 312 350 218 300 201 201 202 137 202 222 131 158 165 140 183 169 230 125 154 212 146 160 189 190 180 174 28 335 332 155 200 176 158 223 240 167 174
326 329 333 325 37 324 284 292 307 186 55 280 255 263 119 154 280 183 183 144 157 205 182 222 258 184 156 198 157 218 165 169 135 88 201 343 284 293 158 183 189 189 196 199 189
322 328 332 332 295 294 265 327 320 66 360 179 223 360 119 145 177 254 162 70 205 236 94 266 309 101 139 210 159 226 160 160 109 66 57 300 85 269 118 195 204 217 199 198 191
318 324 331 105 263 245 324 322 45 47 257 293 190 191 145 171 187 84 166 104 195 312 284 242 276 190 213 122 184 103 83 47 54 35 360 250 130 307 353 326 245 197 187 185 184
316 314 294 236 234 29 313 38 40 147 328 238 222 165 182 189 208 159 191 180 171 60 352 326 261 287 141 89 69 72 76 35 10 19 222 126 111 245 264 266 273 195 199 189 178
319 313 218 209 257 349 47 52 195 236 246 315 227 115 177 171 233 179 154 204 213 101 90 103 325 206 240 172 174 129 143 150 172 195 251 141 231 255 207 251 322 181 192 184 180
317 328 253 253 193 64 82 105 211 210 288 331 332 117 270 239 170 141 197 215 203 172 158 150 312 293 18 155 122 186 83 164 103 6 55 271 290 280 203 224 344 130 143 180 188
325 340 271 117 160 87 87 226 226 227 7 5 354 167 148 278 162 163 180 198 161 194 149 206 86 360 300 56 52 124 155 78 19 137 219 291 279 245 253 239 137 57 85 161 180
3 354 287 159 156 55 180 227 261 255 50 5 336 285 244 187 165 189 191 45 149 113 164 118 98 290 23 40 244 8 74 55 105 103 150 170 268 223 241 137 113 178 161 183 171
351 350 321 47 63 26 181 193 246 210 84 275 228 211 213 214 58 94 174 198 144 180 76 54 135 123 197 280 314 164 127 124 116 223 103 134 272 265 252 72 82 271 276 153 115
353 268 300 124 184 248 295 273 234 267 188 244 288 39 31 239 114 139 122 30 159 103 158 189 25 25 353 354 356 56 15 98 101 85 188 136 260 318 302 299 163 183 217 319 115
337 337 319 28 9 115 8 267 257 241 255 194 244 14 215 246 209 169 144 160 312 104 87 90 113 149 181 203 196 319 4 161 119 124 174 221 226 247 259 258 277 189 197 204 58
131 264 216 314 322 337 259 284 327 6 300 222 285 207 203 183 135 154 131 83 30 119 65 100 114 159 156 255 235 237 330 160 177 187 159 242 200 220 217 240 269 293 186 144 185
249 346 347 287 296 299 282 141 31 332 242 284 204 266 236 182 176 189 133 144 181 190 105 20 158 147 149 286 64 360 340 218 67 131 256 186 230 246 206 268 268 256 304 353 15
301 313 118 272 302 359 226 336 318 14 279 228 256 280 246 239 191 186 176 163 159 148 136 113 131 102 226 334 21 358 322 133 26 24 146 195 205 153 244 249 259 288 328 310 19